Location: Newark
(46.1292°N, 1.0086°W)
Time: 02:32:35
(UTC+00:00)

Vanguard 3 - Pass Details

Date: 16 November 2019
Orbit: 508 x 3263 km, 33.3° (Epoch: 12 December)

Event Time Altitude Azimuth Distance (km) Brightness Sun altitude
Rises 20:36:27 0° 274° (W) 6,316 12.5 -42.1°
Reaches altitude 10° 20:42:44 10° 261° (W) 4,758 11.5 -43.2°
Maximum altitude 20:50:22 19° 223° (SW) 3,306 10.3 -44.4°
Enters shadow 20:51:49 18° 213° (SSW) 3,188 10.2 -44.6°
Drops below altitude 10° 20:55:57 10° 182° (S) 3,309 - -45.3°
Sets 20:59:17 0° 164° (SSE) 3,872 - -45.8°
